Regional Weather Roundup
Issued by NWS

Home | Current Version | Previous Version | Text Only | Print | Product List | Glossary Off
Versions: 1 2 3 4 5 6 7 8 9 10 11 12 13 14 15 16 17 18 19 20 21 22 23 24 25 26 27 28 29 30 31 32 33 34 35 36 37 38 39 40 41 42 43 44 45 46 47 48 49 50

000
ASUS43 KFSD 220902
RWRSD

WEATHER ROUNDUP FOR SOUTH DAKOTA
NATIONAL WEATHER SERVICE SIOUX FALLS SD
300 AM CST SAT NOV 22 2014

NOTE: "FAIR" INDICATES FEW OR NO CLOUDS BELOW 12,000 FEET WITH NO
SIGNIFICANT WEATHER AND/OR OBSTRUCTIONS TO VISIBILITY.


SDZ001>005-009-010-012>017-221000-
NORTHWEST AND NORTH CENTRAL SOUTH DAKOTA

CITY           SKY/WX    TMP DP  RH WIND       PRES   REMARKS
BUFFALO          N/A     34  24  67 W3        29.58F
FAITH            N/A     28  22  78 S15       29.67F WCI  16
MOBRIDGE       CLEAR     29  26  89 SE6       29.68F WCI  23
$$

SDZ012>016-024>037-041>051-057-063-072>074-221000-
SOUTHWEST AND SOUTH CENTRAL SOUTH DAKOTA

CITY           SKY/WX    TMP DP  RH WIND       PRES   REMARKS
RAPID CTY ARPT CLEAR     28  20  71 SE3       29.69F
PIERRE         CLEAR     29  24  82 SW8       29.74F WCI  21
CUSTER         CLEAR     28  20  71 SW7       29.71F WCI  21
ELLSWORTH AFB  CLEAR     30  22  70 SW9       29.68F WCI  22
PHILIP         CLEAR     34  21  59 CALM      29.74F
PINE RIDGE     CLEAR     16  13  88 CALM      29.76F
WINNER         FAIR      38  25  59 SW7       29.76F
$$

SDZ004>011-016>023-039-040-221000-
NORTHEAST SOUTH DAKOTA

CITY           SKY/WX    TMP DP  RH WIND       PRES   REMARKS
ABERDEEN       CLEAR     22  19  89 S9        29.73S WCI  12
WATERTOWN      CLEAR     25  23  92 S10       29.75F WCI  15
SISSETON         N/A     35  27  72 W7        29.70F WCI  29
$$

SDZ017-020-022-023-036>040-048>070-221000-
SOUTHEAST SOUTH DAKOTA

CITY           SKY/WX    TMP DP  RH WIND       PRES   REMARKS
SIOUX FALLS    CLEAR     32  29  88 S9        29.81F WCI  24
HURON          CLEAR     28  25  88 S8        29.76F WCI  20
CHAMBERLAIN    CLEAR     24  23  96 SW5       29.76S WCI  18
MITCHELL       CLEAR     26  25  96 SE6       29.78F FOG     WCI  19
YANKTON        CLEAR     36  30  80 CALM      29.83S
$$

ABBREVIATIONS USED IN REMARKS
   TC - TEMPERATURE IN CELSIUS
  WCI - WIND CHILL INDEX
   HX - HEAT INDEX
  VSB - VISIBILITY



USA.gov is the U.S. government's official web portal to all federal, state and local government web resources and services.